Preview of NWS' New Version of Forecast
This preview is not operational and should not be used for support decisions.

Regional Weather Roundup (RWR)

Issued by National Weather Service (NWS)

                            
000
ASCA42 TJSJ 200610
RWRPR 
PUERTO RICO/U.S. VIRGIN ISLANDS HOURLY WEATHER ROUNDUP
NATIONAL WEATHER SERVICE SAN JUAN PR
200 AM AST SAT APR 20 2019

PRZ001>002-007>008-010-200700-
PUERTO RICO
  
CITY           SKY/WX    TMP DP  RH WIND       PRES   REMARKS
SAN JUAN LMM   PTCLDY    75  68  78 E6        30.04F                  
CEIBA          PTCLDY    81  68  65 MISG      30.05F                  
$$

VIZ001>002-200700-
U.S. VIRGIN ISLANDS
  
CITY           SKY/WX    TMP DP  RH WIND       PRES   REMARKS
CHARLOTTE AMA  MOCLDY    77  66  69 E10       30.04S                  
CHRISTIANSTED  PTCLDY    77  66  69 E14       30.03F                  
$$

HOURLY WEATHER ROUNDUP FOR THE NEWS MEDIA
  
CITY           SKY/WX    TMP DP  RH WIND       PRES   REMARKS
ORLANDO        FAIR      63  52  67 W10       29.87F                  
NEW YORK       LGT RAIN  57  57 100 S15G29    29.74F                  
NEWARK         LGT RAIN  67  65  93 S14       29.71R                  
CHICAGO        FAIR      43  28  55 N17       29.83F                  
HARTFORD       CLOUDY    62  62 100 S26G38    29.83S                  
BOSTON         CLOUDY    66  61  84 S24G32    29.79F                  
DALLAS         CLEAR     54  43  66 CALM      30.06R                  
PHILADELPHIA   CLOUDY    66  63  90 S12       29.68                   
LOS ANGELES    CLOUDY    57  53  86 SW8       29.94S FOG              
WASHINGTON DC  LGT RAIN  65  62  90 S14       29.58S